Regional Weather Roundup
Issued by NWS

Home | Current Version | Previous Version | Text Only | Print | Product List | Glossary On
Versions: 1 2 3 4 5 6 7 8 9 10 11 12 13 14 15 16 17 18 19 20 21 22 23 24 25 26 27 28
000
ASUS45 KREV 230810
RWRNV
NEVADA REGIONAL WEATHER ROUNDUP
NATIONAL WEATHER SERVICE RENO NV
1200 AM PST THU FEB 23 2017

NOTE: "FAIR" INDICATES FEW OR NO CLOUDS BELOW 12,000 FEET WITH NO
SIGNIFICANT WEATHER AND/OR OBSTRUCTIONS TO VISIBILITY.

NVZ001-003-004-230900-
WESTERN NEVADA

CITY           SKY/WX    TMP DP  RH WIND       PRES   REMARKS
RENO           MOCLDY    30  17  58 NW10      29.97S
CARSON CITY    MOCLDY    30  14  51 CALM      29.97S
MINDEN         FAIR      27  18  69 SE8       29.98S
PYRAMID LAKE     N/A     32 N/A N/A SW5         N/A
FALLON         CLOUDY    33  16  49 W12G35    29.96S
LOVELOCK       MOCLDY    31  21  66 NW3       29.95S
HAWTHORNE      CLOUDY    30   7  37 SE6       29.95R
$$

NVZ002-CAZ072-073-230900-
NORTHERN AND CENTRAL SIERRA

CITY           SKY/WX    TMP DP  RH WIND       PRES   REMARKS
S. LAKE TAHOE  LGT SNOW  18  13  80 S7        29.93S
TRUCKEE        CLOUDY    18  14  86 CALM      29.96R
SQUAW VLY 8000   N/A     32  32 100 W7          N/A
SUSANVILLE     CLOUDY   N/A N/A N/A W10       29.99
MAMMOTH LAKES  FAIR      16   4  58 W13       29.91F
BRIDGEPORT       N/A     17   5  59 W7        29.88F
$$

NVZ030-031-036-230900-
NORTHERN NEVADA

CITY           SKY/WX    TMP DP  RH WIND       PRES   REMARKS
ELKO           LGT SNOW  26  22  84 SW14      29.80S FOG
WINNEMUCCA     NOT AVBL
WENDOVER       CLOUDY    32  14  47 NW16      29.76R
$$

NVZ035-037-230900-
CENTRAL NEVADA

CITY           SKY/WX    TMP DP  RH WIND       PRES   REMARKS
ELY            PTCLDY     6   1  80 S9        29.80S
EUREKA           N/A     20  10  65 W7        29.83F
$$

NVZ013-014-230900-
SOUTH CENTRAL NEVADA

CITY           SKY/WX    TMP DP  RH WIND       PRES   REMARKS
TONOPAH        PTCLDY    27  15  61 N8        29.90S
$$

NVZ017-020-022-230900-
SOUTHERN NEVADA

CITY           SKY/WX    TMP DP  RH WIND       PRES   REMARKS
LAS VEGAS      CLOUDY    48  30  49 NE7       29.85R
N. LAS VEGAS   MOCLDY    48  28  46 NW8       29.85S
NELLIS AFB     PTCLDY    47  34  59 S13       29.85S
HENDERSON      CLOUDY    46  31  55 S8        29.87S
MERCURY        CLOUDY    39  33  79 SW3       29.89S
$$




USA.gov is the U.S. government's official web portal to all federal, state and local government web resources and services.